Regional Weather Roundup
Issued by NWS

Home | Current Version | Previous Version | Graphics & Text | Print | Product List | Glossary On
Versions: 1 2 3 4 5 6 7 8 9 10 11 12 13 14 15 16 17 18 19 20 21 22 23 24 25 26 27 28 29 30 31 32 33 34 35 36 37 38 39 40 41 42 43 44 45 46 47 48 49 50
000
ASUS43 KFSD 312310
RWRSD

WEATHER ROUNDUP FOR SOUTH DAKOTA
NATIONAL WEATHER SERVICE SIOUX FALLS SD
500 PM CST SAT JAN 31 2015

NOTE: "FAIR" INDICATES FEW OR NO CLOUDS BELOW 12,000 FEET WITH NO
SIGNIFICANT WEATHER AND/OR OBSTRUCTIONS TO VISIBILITY.


SDZ001>005-009-010-012>017-010000-
NORTHWEST AND NORTH CENTRAL SOUTH DAKOTA

CITY           SKY/WX    TMP DP  RH WIND       PRES   REMARKS
BUFFALO          N/A     20  17  88 E13       29.98R WCI   7
FAITH            N/A     19  14  81 NE15      30.08S WCI   5
MOBRIDGE       CLOUDY    18   3  52 NE14      30.17F WCI   4
$$

SDZ012>016-024>037-041>051-057-063-072>074-010000-
SOUTHWEST AND SOUTH CENTRAL SOUTH DAKOTA

CITY           SKY/WX    TMP DP  RH WIND       PRES   REMARKS
RAPID CTY ARPT FOG       21  20  96 NE15      30.00R VSB 1/4 WCI   8
PIERRE         CLOUDY    18  12  77 NE18      30.11R WCI   2
CUSTER         PTCLDY    27  18  69 E8        29.84R WCI  19
ELLSWORTH AFB  FRZ DRZL  21  19  93 E10       29.99  VSB<1/4 WCI  10
PHILIP         CLOUDY    19  17  92 NE17      30.08R WCI   4
PINE RIDGE     LGT SNOW  24  21  88 NE13      29.93S FOG     WCI  12
WINNER         FRZ RAIN  22  19  89 NE18      30.04R FOG     WCI   7
$$

SDZ004>011-016>023-039-040-010000-
NORTHEAST SOUTH DAKOTA

CITY           SKY/WX    TMP DP  RH WIND       PRES   REMARKS
ABERDEEN       CLOUDY    16   2  54 NE23G29   30.22S WCI  -2
WATERTOWN      CLOUDY    18  12  77 NE20      30.12R WCI   2
SISSETON         N/A     16   3  56 NE20      30.24R WCI  -1
$$

SDZ017-020-022-023-036>040-048>070-010000-
SOUTHEAST SOUTH DAKOTA

CITY           SKY/WX    TMP DP  RH WIND       PRES   REMARKS
SIOUX FALLS    LGT SNOW  26  23  88 NE17      30.04F VSB 3/4 WCI  13
HURON          CLOUDY    21  17  84 NE18      30.12S WCI   6
CHAMBERLAIN    CLOUDY    21  18  88 NE13G21   30.07S WCI   8
MITCHELL       CLOUDY    26  23  88 NE16      30.08S WCI  14
YANKTON        CLOUDY    28  25  86 NE17      30.01F WCI  16
$$

ABBREVIATIONS USED IN REMARKS
   TC - TEMPERATURE IN CELSIUS
  WCI - WIND CHILL INDEX
   HX - HEAT INDEX
  VSB - VISIBILITY



USA.gov is the U.S. government's official web portal to all federal, state and local government web resources and services.